Location: Waco, TX
(31.5480°N, 97.1670°W)
Time: 00:53:36
(UTC-06:00)

ISS - Pass Details

Date: 21 January 2018
Orbit: 402 x 407 km, 51.6° (Epoch: 21 January)

Event Time Altitude Azimuth Distance (km) Brightness Sun altitude
Rises 04:05:52 0° 320° (NW) 2,319 - -42.6°
Reaches altitude 10° 04:07:59 10° 326° (NW) 1,458 - -42.2°
Maximum altitude 04:11:10 49° 42° (NE) 527 - -41.5°
Drops below altitude 10° 04:14:21 10° 120° (ESE) 1,453 - -40.8°
Sets 04:16:27 0° 125° (SE) 2,310 - -40.4°
